Theta_e
332 331 331 332 331 330 331 332 332 331 331 331 331 331 332 332 331 331 332 331 331 330 330 330 330 330 330 330 330 330 330 331 331 331 332 332 332 332 332 332 331 331 331 331 330 329 330 331 331 331 331 331 331 331 330 329 328 328 328 329 328 329 328 325 324 326 329 330 330 330 330 330 329 329 328 325 322 319 318 317 316 315 316 320 323
332 332 332 332 331 330 331 332 332 331 331 331 331 331 330 330 330 330 330 330 330 330 330 330 330 330 330 329 330 330 330 330 331 331 332 331 331 331 331 332 332 331 331 331 330 329 330 331 331 331 331 331 331 331 330 329 329 328 328 328 328 328 327 325 324 324 327 329 330 330 330 330 329 329 329 328 326 323 319 318 317 315 314 316 320
332 332 332 332 331 331 331 332 333 332 331 331 330 330 329 329 330 330 330 330 330 330 330 330 330 329 329 328 328 329 329 330 331 331 331 330 330 330 331 331 331 331 331 330 329 329 330 331 331 330 330 330 330 331 331 330 330 329 329 328 328 328 326 325 324 324 324 326 329 330 330 330 330 329 329 329 328 326 323 320 318 316 314 314 316
332 332 332 333 332 331 331 332 333 332 331 329 329 329 329 330 330 330 330 330 329 329 329 330 330 329 328 328 328 328 329 330 330 330 330 329 329 330 331 331 331 331 331 330 330 330 330 330 330 329 329 329 330 331 331 331 330 330 329 328 328 328 327 327 327 326 325 325 328 329 330 330 330 330 329 329 328 328 326 323 320 318 316 314 314
333 332 333 333 332 332 332 332 332 332 331 330 329 330 330 330 330 329 329 329 328 329 329 330 330 328 328 327 328 328 329 330 330 329 329 329 329 330 331 331 331 331 331 330 330 330 330 330 329 329 329 329 329 330 330 330 330 330 329 329 329 328 328 328 328 327 327 327 328 329 329 330 329 329 329 329 329 328 328 326 323 320 318 316 315
332 333 333 333 333 332 332 332 332 332 331 331 331 330 330 330 330 330 329 329 329 329 329 329 329 329 328 328 329 329 330 330 329 329 329 328 329 329 330 331 331 331 331 331 330 330 330 329 329 329 329 329 329 329 329 329 329 328 328 328 328 328 328 328 328 327 327 327 329 329 329 329 329 329 329 329 329 329 329 328 327 323 320 318 317
332 332 333 333 333 333 333 332 332 332 332 332 331 331 331 331 330 330 329 329 329 329 329 329 330 329 328 328 328 329 329 329 328 328 328 328 329 329 329 329 330 330 330 329 329 329 329 328 328 328 328 328 328 328 328 327 327 327 327 327 328 328 328 328 328 327 327 327 327 328 328 328 328 328 328 328 328 328 328 328 328 327 323 319 318
332 332 333 333 333 333 333 333 332 332 332 332 331 331 331 331 330 330 329 329 329 329 329 329 329 329 329 328 328 327 327 327 327 327 328 328 328 328 328 328 328 328 328 327 327 327 327 326 326 326 326 326 326 326 326 326 326 326 326 326 326 327 327 328 328 327 327 327 327 327 327 328 328 328 328 328 328 328 329 329 328 328 327 323 319
331 331 332 332 333 334 334 333 332 332 332 331 331 330 330 331 330 330 329 329 329 328 329 328 328 328 328 327 327 326 326 326 326 326 327 327 327 326 326 326 325 324 324 324 323 322 322 322 322 323 324 324 324 324 325 325 325 326 326 326 326 326 326 326 326 326 326 326 326 326 327 328 328 329 328 328 328 329 329 329 329 329 329 327 324
331 331 331 332 333 334 334 333 332 331 330 330 329 329 330 330 330 329 329 329 328 328 328 327 327 327 326 326 325 325 325 325 325 326 326 325 325 324 324 322 321 320 319 317 316 314 312 312 313 314 316 318 320 321 323 323 324 325 325 326 326 326 326 326 326 326 325 325 326 326 326 327 328 328 328 328 329 329 329 329 329 329 329 329 327
332 331 331 332 333 333 333 332 331 330 330 329 329 329 329 329 329 328 328 328 327 326 325 325 325 323 322 323 323 324 324 324 325 325 324 324 323 322 321 318 316 313 311 308 306 304 303 303 303 304 305 306 308 312 315 318 320 322 323 324 324 325 325 324 325 325 325 325 325 325 325 326 326 327 328 328 329 329 329 329 329 329 329 329 329
331 331 331 331 332 332 331 330 330 330 330 329 329 329 328 328 328 327 327 326 323 321 320 320 319 318 319 320 321 323 323 324 324 324 323 322 320 318 315 311 307 305 303 301 300 300 299 299 299 299 299 299 300 301 303 306 308 311 314 317 320 321 322 323 323 323 323 323 324 325 325 325 325 326 327 328 328 328 329 329 330 329 329 329 329
330 331 331 331 331 331 330 329 330 330 330 329 329 328 327 327 327 326 324 320 318 316 315 315 314 315 317 318 320 322 322 322 322 321 320 317 314 311 307 303 301 300 299 299 299 299 299 299 299 298 298 298 298 298 298 299 299 301 302 304 307 310 314 316 319 320 321 321 322 323 324 325 325 325 327 327 327 327 328 328 329 329 328 329 329
331 331 331 331 330 330 329 329 329 330 329 329 328 327 327 327 325 322 318 315 314 313 312 312 312 314 315 318 320 321 321 322 321 317 314 312 308 304 301 299 299 299 298 298 298 298 298 298 298 298 298 298 298 298 298 298 298 298 298 298 298 300 301 304 307 310 314 316 318 319 321 323 324 325 325 326 326 326 327 327 327 328 328 328 328
332 331 330 330 329 329 328 328 329 329 328 327 327 326 326 324 319 315 313 312 311 311 311 310 310 313 316 319 320 320 323 321 316 312 310 307 303 300 299 298 298 298 298 298 298 298 298 297 297 297 297 297 297 297 297 297 297 297 298 297 298 298 297 298 298 300 302 305 308 311 315 318 321 323 323 324 325 325 326 326 326 326 326 327 328
330 330 330 329 328 328 327 327 327 327 325 325 325 323 320 317 313 312 311 310 310 309 309 307 307 310 313 317 318 320 321 314 308 308 305 304 300 298 298 298 298 298 297 298 297 297 297 297 297 297 297 297 297 297 297 297 297 297 297 297 297 297 297 297 297 297 297 298 299 300 303 308 313 318 320 321 322 324 324 325 325 324 325 326 328
329 329 328 328 327 327 325 325 324 324 324 323 321 317 313 311 310 310 308 308 307 305 305 304 303 304 306 310 314 315 310 304 307 308 302 301 299 297 298 298 298 298 297 297 297 296 296 296 296 296 296 296 296 296 296 296 296 296 296 296 297 297 297 297 297 297 297 297 297 297 297 299 302 306 312 315 318 321 322 323 323 323 324 325 326
328 327 327 327 326 325 323 323 323 323 322 318 313 311 309 309 308 307 305 305 304 303 303 303 302 302 302 303 306 306 302 300 306 307 301 299 298 297 298 297 298 298 297 297 296 296 296 296 296 296 296 296 296 296 296 296 296 296 296 296 297 297 297 297 297 297 297 297 297 297 297 297 297 298 301 305 310 315 318 320 320 321 322 323 324
327 327 327 326 325 322 321 322 322 320 316 311 309 307 307 306 305 304 303 302 302 302 302 302 301 302 301 301 301 301 300 299 301 303 302 301 298 296 297 297 297 297 296 296 296 296 296 296 296 295 295 295 295 296 296 296 296 296 296 296 297 297 297 297 297 297 297 297 297 297 297 297 297 297 297 298 300 304 309 314 317 319 320 322 323
328 327 326 324 322 321 321 321 319 314 310 307 306 305 304 303 302 301 301 301 301 301 301 301 301 301 301 301 300 300 300 299 299 299 300 301 299 297 296 296 296 296 296 296 296 296 295 295 295 295 295 295 295 295 295 296 296 296 296 296 296 297 297 297 297 297 297 297 298 298 298 297 297 297 297 297 297 297 300 304 310 314 317 319 321
327 325 323 322 322 321 319 318 314 309 307 305 304 303 302 301 300 300 300 300 301 301 301 301 301 301 300 300 300 299 299 299 300 299 298 300 299 297 296 296 296 295 295 295 295 295 295 295 295 295 295 295 295 295 295 296 296 296 296 296 297 297 297 297 297 297 297 297 298 298 298 298 298 298 297 297 297 297 297 297 300 305 311 315 318
325 323 322 322 320 319 317 313 310 307 304 303 302 301 300 300 300 300 300 300 300 300 300 300 300 300 299 299 299 299 299 299 299 299 299 298 298 297 297 296 296 295 295 295 295 295 295 295 295 295 295 295 295 295 295 295 296 296 296 296 296 296 297 297 297 297 297 297 297 297 297 298 298 298 298 297 297 297 297 297 297 298 302 308 313
323 322 322 320 318 316 312 309 306 304 303 301 300 299 299 299 299 299 299 300 300 300 300 300 300 300 299 300 300 299 299 299 299 298 298 298 297 297 297 296 296 295 295 295 295 295 295 294 294 295 295 295 295 295 295 295 295 295 296 296 296 296 296 297 297 297 297 297 297 297 297 297 297 297 298 298 298 297 297 297 297 297 297 300 304
322 321 320 317 315 312 308 306 304 302 301 300 299 299 299 299 299 299 299 299 299 299 300 300 299 300 300 299 299 299 299 299 298 298 298 297 297 296 296 296 296 295 295 295 295 295 295 294 294 295 295 295 295 295 295 295 295 295 295 295 295 295 296 296 296 297 297 297 297 297 297 297 297 297 297 297 297 297 297 297 297 297 297 297 298
321 319 316 313 310 307 305 303 301 300 300 299 299 298 298 298 298 299 299 299 299 299 299 299 299 299 299 299 298 298 298 298 297 297 297 296 296 296 296 296 296 296 295 295 295 295 295 294 294 294 294 295 295 295 295 295 295 295 295 295 295 295 295 295 295 296 296 297 297 297 297 297 297 297 297 297 297 297 297 297 297 297 297 297 297
319 316 311 308 306 304 302 301 300 299 299 298 298 298 298 298 298 298 299 299 298 299 299 299 299 299 298 298 298 298 297 297 296 296 296 296 295 295 295 296 296 296 296 295 295 295 295 295 294 294 294 294 294 294 295 295 295 295 295 295 295 295 295 295 295 295 296 296 297 297 297 297 297 297 297 297 297 297 297 297 297 297 298 297 297
316 311 306 304 303 301 301 300 300 299 299 298 298 298 298 298 298 298 299 298 298 299 299 298 298 298 298 297 297 297 297 296 296 295 295 295 295 295 295 295 295 296 296 295 295 294 294 294 294 294 294 294 294 294 294 295 295 295 295 295 295 295 295 295 295 295 295 296 296 296 297 297 297 297 297 298 297 297 297 297 297 297 297 297 297
312 306 303 302 301 300 300 300 299 299 299 298 298 298 297 297 298 298 298 298 298 298 298 298 298 297 297 297 296 296 296 295 295 295 295 294 294 294 294 294 294 296 296 295 294 294 294 294 294 294 294 294 294 294 294 295 294 295 295 295 295 295 295 295 295 296 296 296 296 296 297 297 297 297 297 298 298 298 298 297 297 297 297 297 297
308 303 301 300 300 300 300 299 299 299 298 298 297 297 297 297 297 298 298 297 297 298 297 297 297 296 296 296 296 296 295 295 295 294 294 294 294 294 294 293 293 295 296 296 294 294 294 294 293 294 294 294 294 294 294 294 294 294 294 294 295 295 295 296 296 297 297 297 297 297 297 297 298 298 298 298 298 298 298 298 298 297 297 297 297
304 301 300 299 299 299 299 299 298 298 298 297 297 297 297 297 297 297 297 297 297 297 296 296 296 296 295 295 295 295 295 294 294 294 294 294 294 293 293 293 293 293 294 295 295 293 293 293 293 293 293 293 294 294 294 294 294 294 294 294 295 295 296 296 296 297 297 298 298 298 298 298 298 298 299 299 299 298 298 298 298 297 297 297 297
301 299 299 298 298 298 298 298 298 297 297 297 297 297 297 297 297 297 297 296 296 296 296 296 296 295 295 295 295 294 294 294 294 293 293 294 293 293 293 293 292 292 292 293 295 294 292 293 293 293 293 293 293 293 293 293 294 294 294 294 294 295 295 295 296 296 297 298 298 298 298 298 299 299 298 298 298 298 298 298 298 297 297 297 296
299 299 299 298 298 297 297 297 297 297 297 297 297 297 297 297 297 296 296 296 296 296 296 295 295 295 295 294 294 294 293 293 293 293 293 293 293 293 293 292 292 292 292 292 294 294 292 293 293 292 292 293 293 293 293 293 293 294 294 294 294 294 295 295 295 296 297 298 298 298 298 298 298 297 297 297 297 298 297 297 297 297 297 296 296
298 298 297 297 297 297 297 296 296 296 296 296 296 296 296 296 296 296 296 296 296 296 296 295 295 295 294 294 294 293 293 293 293 293 293 293 293 292 292 292 292 292 291 291 292 292 292 293 292 292 292 292 293 293 293 293 293 293 293 294 294 294 295 295 296 297 298 298 298 298 297 297 297 296 296 296 296 296 296 297 296 296 296 296 296
297 297 297 297 297 296 296 296 296 296 296 296 296 296 296 296 296 296 296 296 296 296 295 295 295 295 294 294 294 293 293 293 293 293 293 293 293 292 292 292 292 292 291 291 291 291 292 292 292 292 292 292 292 292 293 293 293 293 293 294 294 294 294 295 296 297 298 298 297 297 296 296 296 296 295 295 295 295 295 296 296 296 295 296 295
297 297 296 296 296 296 296 296 296 296 296 296 296 296 296 296 296 296 296 296 296 295 295 295 295 295 294 294 294 293 293 293 293 293 292 292 292 292 292 292 292 292 292 291 291 291 291 291 291 291 291 292 292 292 292 293 293 293 293 293 294 294 295 295 296 297 296 296 296 296 295 295 295 295 295 294 295 295 295 295 295 295 295 295 295
297 296 296 296 296 296 295 295 295 295 296 296 295 296 296 296 295 296 296 296 296 295 295 295 295 295 294 294 294 293 293 293 293 292 292 292 292 292 292 292 292 292 292 292 291 291 291 291 291 291 291 292 292 292 292 293 293 293 293 294 294 294 295 296 296 296 296 295 295 295 295 295 295 294 294 294 294 294 294 295 295 295 295 295 295
296 296 296 296 296 295 295 295 295 295 295 295 295 296 296 296 296 296 296 296 295 295 295 295 295 294 294 294 293 293 293 293 293 293 292 292 292 292 292 292 292 292 292 292 291 291 291 291 291 291 291 291 291 292 292 293 293 293 294 294 294 294 295 296 296 296 296 295 295 295 295 295 295 294 294 294 294 294 294 294 294 294 295 295 295
296 296 296 295 296 295 295 295 295 295 295 295 295 295 296 296 295 296 296 295 295 295 295 294 294 294 293 293 293 293 293 293 293 293 292 292 292 291 291 291 292 292 292 292 291 291 291 291 291 291 291 291 292 292 292 293 293 294 294 295 295 295 295 296 296 296 295 295 295 295 295 294 294 294 294 294 294 294 294 294 294 294 294 294 295
297 296 295 295 295 295 295 295 295 295 295 295 295 295 295 295 295 296 295 295 294 294 294 294 294 293 293 293 293 293 293 292 293 293 292 292 291 291 291 291 291 291 291 291 291 291 291 291 291 291 291 291 292 293 293 293 294 294 295 295 295 295 296 296 296 295 295 295 295 295 294 294 294 294 294 294 294 294 294 294 294 294 294 294 295
297 295 295 295 295 295 295 295 295 295 295 295 295 295 295 295 295 295 295 294 294 294 294 294 293 293 293 293 293 293 293 292 292 292 292 291 291 291 291 291 291 291 291 291 291 291 291 291 291 290 291 291 292 293 294 294 294 294 294 294 295 295 296 295 295 295 295 295 295 295 294 294 295 295 295 295 295 295 294 294 294 294 295 295 294
296 295 295 295 295 295 295 295 295 295 294 294 295 295 295 295 295 295 295 295 294 294 294 293 293 293 293 293 293 293 293 292 292 292 292 291 291 291 291 291 291 291 291 291 291 291 291 291 290 290 291 292 293 293 294 294 294 294 294 294 295 295 295 295 295 295 295 295 295 295 294 295 295 295 294 295 295 295 295 295 295 295 295 295 295
296 295 295 295 295 295 295 295 295 294 294 294 295 295 295 295 295 295 295 295 294 294 294 294 293 293 293 293 293 293 293 292 292 292 291 291 291 291 290 290 290 291 291 291 291 291 291 291 290 290 291 293 293 293 294 294 294 294 293 294 294 295 295 295 295 295 295 295 295 295 295 294 294 294 294 295 295 295 295 295 295 295 295 295 294
296 295 294 295 295 295 295 295 294 294 294 294 295 294 294 295 295 294 294 294 294 294 294 293 293 293 293 293 293 293 293 292 292 292 291 291 291 291 291 291 290 290 290 290 291 291 291 291 290 290 291 292 293 293 293 293 293 293 293 293 294 294 295 295 295 295 295 294 294 294 294 294 294 294 294 294 295 295 295 295 295 294 294 294 295
296 295 295 295 295 295 295 294 294 294 294 294 294 294 294 294 294 294 294 293 293 293 293 293 293 293 293 293 293 293 293 293 292 292 292 292 292 291 291 291 290 290 290 290 290 291 291 291 290 290 291 292 292 292 293 293 293 293 293 293 294 294 295 295 295 295 295 294 294 294 294 294 294 294 294 294 294 295 295 295 294 294 294 295 295
295 295 295 295 295 295 295 294 294 294 294 294 294 294 294 294 294 293 293 293 293 293 293 293 293 293 293 293 293 293 292 292 292 292 292 292 292 292 292 291 291 290 290 290 290 290 291 291 291 290 290 291 292 292 293 293 293 293 293 293 294 294 295 295 295 294 294 294 294 293 293 293 293 294 294 294 294 294 294 294 294 294 295 295 295
295 295 295 295 294 294 294 294 294 293 294 294 294 294 293 293 293 293 293 293 293 293 293 293 293 293 293 293 293 292 292 292 292 292 292 292 293 293 292 292 291 291 291 291 290 290 290 291 291 290 290 291 291 292 293 293 293 293 293 293 294 294 295 295 294 294 294 294 293 293 293 293 293 293 293 293 293 294 294 294 294 295 295 295 295
295 294 294 294 294 294 294 294 293 293 293 293 293 293 293 293 293 293 293 293 292 292 292 293 293 293 293 293 293 292 292 292 292 292 292 293 293 293 293 292 292 291 291 291 290 290 290 290 291 290 290 290 291 292 292 293 293 293 292 293 294 294 294 294 294 294 294 294 293 293 293 293 293 292 292 293 293 293 293 294 294 295 295 295 295
295 294 294 294 294 294 294 293 293 293 293 293 293 293 293 293 293 293 293 292 292 292 292 292 293 293 293 293 292 292 292 292 292 292 292 293 293 293 293 292 292 292 292 292 291 291 290 290 291 291 290 290 291 291 292 292 292 292 292 293 293 294 294 294 294 294 294 294 293 293 292 292 292 292 292 293 293 292 293 293 294 294 295 295 296
294 294 294 294 293 293 293 293 293 293 293 293 293 293 293 293 293 293 293 292 292 292 293 293 293 293 293 292 292 292 292 292 292 292 292 293 293 293 293 293 293 293 293 293 292 292 291 291 291 291 291 290 291 291 292 292 292 292 292 292 293 294 294 294 293 294 294 293 293 292 292 292 292 292 293 293 292 292 292 293 294 294 295 296 296
294 294 294 293 293 293 293 293 294 294 294 294 294 294 294 294 293 293 293 293 293 293 293 293 293 293 293 292 292 292 292 292 292 292 292 293 293 293 293 293 293 293 292 292 292 292 292 291 291 291 291 291 291 291 292 292 292 292 292 292 293 294 294 294 293 293 293 293 292 292 291 292 292 292 292 292 291 292 292 293 293 294 295 296 297
293 293 293 293 293 293 293 293 294 294 294 294 294 294 294 294 294 293 293 293 293 293 293 293 293 293 292 292 292 292 292 292 292 292 293 293 293 293 293 293 293 292 292 292 292 292 292 292 291 291 291 291 291 291 292 292 292 292 292 292 293 294 293 293 293 293 293 293 292 291 291 291 291 292 292 291 291 292 293 293 293 294 295 296 296
Wind_Speed
2 3 2 2 2 2 2 2 2 2 2 2 2 3 3 3 4 4 4 4 4 5 5 6 7 8 9 9 10 10 11 10 10 10 10 11 11 12 13 14 14 14 13 11 10 10 10 11 12 12 13 13 12 12 11 11 12 11 11 11 12 12 12 13 13 12 10 9 10 10 10 9 9 9 8 9 9 9 10 11 12 14 14 14 13
3 3 1 1 1 1 2 1 2 1 1 1 2 3 3 3 3 4 3 3 4 5 6 7 8 9 10 11 11 11 12 11 11 10 11 11 12 13 13 14 14 14 13 13 12 11 10 10 10 11 12 12 13 13 12 11 11 12 12 12 12 12 11 12 14 13 10 8 9 11 11 11 10 11 10 10 9 9 9 10 12 13 14 15 15
2 2 1 1 1 0 1 1 1 1 1 2 3 3 3 3 4 4 4 5 5 6 7 8 9 11 11 11 11 11 11 11 11 11 11 11 11 12 12 12 13 13 13 13 13 11 10 10 10 11 12 12 13 14 14 12 12 11 12 13 14 13 13 13 14 14 12 9 9 10 12 12 12 12 12 12 11 10 10 10 11 12 14 15 17
2 3 2 2 2 2 2 1 1 2 3 3 4 4 5 5 5 5 6 6 7 8 9 10 10 11 11 11 11 11 10 10 10 10 10 10 10 10 10 11 12 12 13 13 12 11 11 11 12 13 14 14 14 14 14 14 14 13 13 13 14 15 15 15 14 15 15 12 11 11 12 13 13 12 13 13 12 12 12 11 11 12 13 15 16
4 4 3 2 2 3 3 3 3 3 3 4 5 6 6 6 7 8 8 8 9 9 9 10 10 11 11 11 10 10 9 9 9 9 8 8 8 9 9 9 10 11 12 12 13 13 12 13 13 13 14 15 15 15 16 16 17 17 17 16 15 15 16 16 15 15 15 14 13 13 14 14 14 14 13 13 14 15 14 13 13 13 14 15 15
4 4 4 3 3 4 4 3 3 4 4 5 6 7 7 7 8 8 8 8 8 8 9 9 10 10 10 10 9 9 8 8 8 7 7 7 7 7 7 8 9 10 11 13 14 14 14 14 14 14 14 15 16 16 17 18 18 19 19 18 17 15 15 15 16 15 15 15 13 12 14 14 14 15 14 13 14 15 15 14 14 14 14 15 16
4 4 3 4 4 4 4 4 4 5 6 7 7 7 7 8 8 8 8 8 8 8 8 9 9 10 10 10 9 8 7 7 7 6 6 6 6 7 7 8 8 9 10 12 14 15 15 15 15 15 15 15 16 16 17 17 18 19 20 19 17 15 14 13 14 15 16 16 15 13 13 13 14 14 14 14 15 15 15 15 14 14 15 16 16
4 4 3 4 4 5 5 5 6 7 7 7 7 7 8 9 9 9 9 9 8 8 8 9 9 10 10 9 8 7 6 6 6 6 5 6 6 7 7 8 8 9 10 11 13 14 14 14 15 16 15 14 14 15 16 15 16 18 18 18 17 16 14 12 13 15 16 17 16 15 13 13 14 15 15 16 17 17 16 16 16 16 16 15 16
4 4 4 4 4 4 4 5 7 8 8 8 8 9 10 10 10 10 10 10 9 9 9 9 10 10 9 8 6 6 5 5 5 4 4 5 6 7 7 8 9 10 11 11 12 13 14 14 14 15 14 13 13 14 14 14 14 15 16 17 17 17 16 15 14 14 15 16 16 15 14 13 14 15 17 18 19 19 18 18 18 18 19 17 16
4 5 4 3 3 3 4 6 7 9 10 10 11 11 11 10 11 11 11 11 11 10 9 9 9 9 7 6 5 5 4 4 4 4 4 5 6 7 8 9 10 11 12 12 12 13 13 14 14 14 14 14 14 14 14 14 14 15 16 16 17 17 18 17 16 15 15 16 17 17 15 13 14 15 18 20 21 20 19 19 19 19 20 20 19
5 5 4 3 3 5 6 7 9 10 11 11 11 11 11 11 12 13 12 12 11 10 9 7 6 5 5 5 4 4 3 3 3 4 5 6 7 9 10 11 11 12 12 12 13 13 13 13 13 13 13 13 13 14 14 15 15 15 16 17 17 18 19 18 18 18 17 18 18 18 17 15 15 16 18 20 21 21 20 20 21 21 21 21 22
5 4 4 3 5 7 8 10 10 10 11 11 12 12 12 12 12 12 11 11 10 8 6 3 2 2 3 4 4 4 3 3 3 4 5 7 8 9 10 11 12 12 12 13 13 13 13 14 14 14 13 12 12 12 13 14 15 16 16 17 18 19 20 20 20 20 20 21 20 20 19 17 17 17 17 19 20 22 22 22 24 23 23 23 23
3 3 3 4 6 8 10 10 10 11 12 13 13 13 13 12 11 10 9 8 6 5 4 2 1 1 3 5 5 4 3 2 3 5 6 7 8 9 11 12 12 13 13 14 13 13 14 15 15 16 16 15 14 13 12 13 14 15 16 16 17 18 20 21 22 21 22 23 22 22 21 20 19 18 18 19 20 22 22 23 24 23 23 25 25
2 3 5 7 8 10 11 11 12 14 15 15 15 14 12 10 8 7 7 6 4 4 4 3 1 2 3 5 5 4 2 2 4 6 7 8 10 11 12 13 13 13 14 14 14 15 16 16 17 17 18 18 17 16 15 13 13 14 15 16 16 17 18 20 21 22 23 24 24 24 23 21 21 20 20 20 21 23 23 23 24 22 22 24 26
4 6 8 9 11 11 12 13 14 15 16 15 14 11 8 6 5 5 5 6 5 5 5 4 2 2 3 4 4 4 1 3 6 6 7 9 10 12 13 14 14 14 15 15 16 17 18 18 19 19 20 20 20 19 18 17 15 14 14 15 16 16 17 18 19 20 22 24 24 26 26 24 23 22 22 22 24 25 25 24 23 22 21 21 22
6 8 10 11 12 12 13 15 16 16 15 13 10 7 4 4 4 5 6 6 6 6 5 5 5 3 3 3 3 4 3 2 4 6 8 8 11 14 15 15 15 15 16 17 18 19 19 19 20 21 21 21 21 21 21 20 19 17 16 15 15 16 16 17 18 19 20 22 23 25 27 26 25 24 23 24 26 28 27 25 23 21 19 19 20
8 11 12 13 13 14 16 16 16 14 11 8 5 4 5 5 5 6 6 5 6 7 6 6 8 7 5 4 4 4 4 4 3 5 7 8 11 14 15 15 16 17 18 19 19 20 20 21 21 22 22 22 23 23 23 23 23 22 21 20 18 17 17 17 18 18 19 20 21 23 26 27 26 26 26 26 28 30 29 27 24 22 19 19 21
10 12 13 14 15 16 15 14 12 9 6 4 5 5 6 5 6 6 5 5 7 7 6 8 9 9 10 9 7 6 7 8 6 4 5 7 11 14 14 15 16 17 19 19 20 20 20 21 21 22 22 22 23 23 24 24 25 25 24 24 23 22 21 20 19 19 19 20 21 22 24 26 26 26 27 28 30 31 31 29 27 24 22 22 22
12 13 14 14 15 14 12 10 7 5 5 6 6 6 6 6 6 6 6 6 7 7 8 9 9 10 12 11 11 11 10 11 9 7 5 5 10 15 15 16 16 17 19 19 19 19 19 20 20 21 22 22 23 23 24 24 24 25 25 26 25 25 25 24 23 22 21 21 22 23 24 25 25 26 26 28 31 32 32 31 29 27 27 26 25
14 14 13 12 12 10 9 6 5 5 6 6 6 6 6 6 6 7 7 8 8 8 9 10 10 11 13 12 12 12 11 12 12 11 8 5 9 17 17 17 17 18 19 19 18 19 20 20 21 22 23 24 24 25 25 26 26 26 27 27 27 27 27 26 26 25 24 23 23 24 25 25 25 25 26 28 31 32 32 32 31 30 30 30 29
14 12 11 10 10 8 6 4 5 6 6 6 5 6 6 6 7 8 8 9 9 10 10 11 12 12 13 13 12 12 12 12 12 13 13 10 12 18 19 19 20 20 19 18 17 18 20 21 23 24 24 25 26 27 27 27 27 27 27 28 29 29 28 28 27 26 26 25 24 24 24 25 26 26 26 27 29 31 32 31 31 32 32 33 33
11 9 10 10 9 7 3 4 6 6 6 5 5 6 6 7 8 9 9 9 11 11 11 13 13 13 13 12 12 13 12 13 14 15 15 14 15 17 19 20 21 21 21 20 20 21 23 24 24 25 26 27 28 28 28 28 28 27 27 28 29 29 29 29 29 28 27 26 25 25 24 25 25 27 27 28 28 29 31 31 31 31 33 35 35
9 10 10 9 7 3 3 5 6 6 5 5 5 6 7 8 9 9 9 10 12 12 12 13 13 12 12 12 13 14 13 14 15 15 15 16 16 17 18 19 21 21 20 20 20 22 25 25 25 26 27 28 28 29 29 29 29 29 28 28 29 29 29 29 29 29 28 28 26 25 25 24 25 26 27 29 29 29 29 30 31 31 32 35 36
10 11 9 6 3 2 5 6 5 5 5 5 6 7 9 9 9 9 10 12 13 12 12 13 13 12 13 13 14 13 13 14 14 15 15 15 16 17 18 19 20 20 19 20 20 20 23 25 26 27 27 27 28 29 30 30 31 31 31 31 30 30 30 30 29 29 28 28 27 26 25 24 25 25 26 28 29 30 30 29 30 31 32 33 36
11 9 5 2 2 5 6 5 5 5 5 6 7 8 9 9 9 10 11 12 12 12 12 13 13 13 13 13 13 13 14 14 15 15 16 16 17 19 20 20 20 20 21 21 20 21 23 24 25 27 28 28 28 29 30 31 32 33 34 34 33 32 32 32 31 30 28 27 27 27 26 24 24 24 25 26 28 30 31 30 29 31 32 33 35
11 5 0 4 6 6 6 5 5 5 6 7 8 9 10 10 10 11 11 12 12 12 13 13 12 12 13 13 14 14 15 15 16 17 18 19 20 21 22 22 22 21 22 22 23 24 25 24 25 26 28 29 30 30 30 31 32 33 35 36 36 35 35 35 34 33 31 29 28 27 27 26 25 24 24 25 26 28 30 30 29 30 32 33 33
6 2 5 6 7 6 5 5 5 5 6 7 8 10 10 10 10 11 11 13 12 12 12 12 12 12 13 14 14 15 16 17 17 18 19 20 21 22 23 24 24 24 24 24 24 26 27 26 26 27 28 30 31 32 31 32 33 35 36 37 38 38 37 37 36 35 33 31 30 29 28 28 26 25 25 24 24 25 27 30 30 29 30 33 33
1 6 6 7 7 6 5 5 5 6 6 7 8 10 10 10 10 11 12 12 11 11 11 11 12 13 13 14 15 15 16 17 18 19 20 21 22 22 23 24 24 23 24 26 26 26 28 30 29 29 29 30 31 32 32 33 33 34 35 36 38 39 39 39 38 37 36 34 32 31 29 29 28 27 26 25 24 24 25 27 30 30 29 31 33
6 8 7 8 7 6 5 5 5 6 6 7 8 10 10 10 10 10 11 11 10 11 11 11 12 13 13 14 14 15 16 17 18 19 20 20 21 22 22 23 22 20 19 23 27 28 28 30 32 31 31 30 31 32 31 32 33 34 35 36 38 39 40 39 39 38 37 35 33 32 30 29 29 29 27 27 26 26 25 25 28 30 30 29 31
9 8 8 8 7 7 6 5 5 6 6 7 9 10 10 9 9 9 10 11 10 11 11 11 12 13 13 14 14 15 16 17 18 18 19 20 20 21 21 21 22 20 17 18 23 27 30 31 32 32 32 32 32 33 33 34 35 36 37 38 39 40 41 41 41 41 39 38 36 34 34 33 32 31 30 30 28 28 27 26 26 29 30 30 29
10 8 8 8 7 7 6 6 6 6 7 8 9 9 9 8 8 9 10 10 9 10 11 11 12 12 13 14 14 15 16 17 17 18 19 19 20 20 20 21 22 22 22 20 20 26 31 32 32 32 32 34 34 36 38 39 39 39 39 40 41 42 44 45 46 45 43 41 40 39 38 38 37 36 35 33 32 30 29 27 26 27 30 31 29
10 9 9 8 8 8 7 7 6 6 7 7 8 8 8 7 7 8 9 9 9 10 10 11 11 12 12 13 14 15 16 16 17 17 18 18 19 20 21 22 23 24 26 24 23 28 32 32 33 34 34 36 38 39 41 41 41 42 41 42 44 46 47 49 48 47 46 45 44 43 43 42 41 39 37 35 33 32 31 29 27 26 28 31 30
10 11 10 9 9 8 8 7 7 7 6 6 7 7 7 7 7 8 9 8 8 9 9 9 10 11 11 12 13 15 15 16 16 17 18 18 19 21 21 22 24 24 26 27 26 31 33 33 35 36 37 40 40 40 42 43 43 44 44 45 47 49 51 52 51 50 49 47 44 43 43 41 39 36 35 34 32 31 30 29 27 25 26 28 30
12 12 10 10 9 8 8 7 7 7 6 5 5 6 7 7 7 8 8 8 7 8 8 8 9 10 11 12 13 14 15 15 16 17 18 19 20 21 22 23 24 24 25 27 28 31 35 36 37 38 40 40 41 42 42 44 46 47 48 49 50 52 53 53 54 54 50 45 43 43 40 37 34 34 33 33 31 30 29 28 26 25 25 26 28
12 12 10 10 9 9 8 7 7 6 5 5 5 6 6 7 7 7 7 7 7 7 8 8 9 9 10 12 13 14 15 15 17 18 18 19 20 21 22 23 24 24 24 26 28 31 35 38 39 40 41 41 42 43 43 45 47 49 51 52 53 54 55 56 53 47 42 41 41 41 38 34 34 35 35 34 33 32 30 27 26 24 24 25 27
12 11 10 10 9 9 8 8 7 6 5 5 4 5 6 6 6 6 6 6 6 7 7 7 8 9 10 12 13 13 14 15 17 18 19 20 21 22 23 24 24 24 25 25 28 30 35 38 39 40 41 43 43 44 45 47 48 50 52 52 54 54 53 52 45 36 35 38 37 35 34 34 36 36 35 35 35 35 32 29 27 26 25 25 26
11 10 10 10 10 9 8 8 7 6 6 5 4 5 6 6 6 6 6 6 6 7 8 8 8 9 10 12 12 13 14 16 17 18 20 20 21 23 23 24 24 25 26 27 29 31 34 38 40 41 42 43 44 44 46 48 51 54 51 48 51 52 46 40 36 34 34 35 32 31 32 33 34 35 34 34 35 35 34 32 30 28 26 25 26
11 10 10 10 10 9 9 9 8 7 6 5 5 5 5 6 6 6 5 6 6 7 8 8 8 9 10 11 12 13 14 16 17 19 20 21 22 23 23 23 24 26 27 29 31 33 35 37 40 42 43 44 45 46 46 47 49 52 50 47 48 45 38 34 34 33 33 31 30 30 31 32 33 34 34 34 34 34 33 32 30 28 26 25 25
11 11 11 10 10 10 9 9 8 7 7 6 5 5 5 6 6 6 5 6 6 7 8 8 8 9 10 11 12 13 14 15 17 19 20 21 22 22 22 24 25 27 29 30 32 34 36 38 39 41 43 44 44 44 46 47 45 44 46 49 47 41 35 34 34 34 33 31 29 29 31 32 34 34 33 33 34 33 32 30 29 28 25 24 24
12 12 11 10 10 10 10 10 9 8 7 6 5 5 5 5 6 6 6 6 7 7 7 7 8 8 9 10 11 12 13 15 16 18 19 21 22 21 22 24 25 27 29 31 33 34 36 38 39 40 42 43 42 42 45 47 47 46 48 49 46 42 39 35 34 34 34 30 28 29 31 31 30 30 30 30 30 30 30 28 27 26 25 23 23
13 13 12 11 10 10 10 10 9 9 8 7 6 5 5 5 6 6 6 7 6 6 6 6 7 7 8 9 10 11 12 14 15 16 18 20 21 21 22 23 25 27 29 30 32 34 36 38 39 40 41 41 42 43 45 46 46 48 52 50 44 41 41 39 35 30 29 30 30 31 32 31 30 30 30 30 28 26 26 25 23 22 21 21 22
13 13 13 13 12 11 10 10 10 9 8 7 6 6 5 5 6 6 5 6 5 5 5 5 6 6 7 8 9 10 11 13 14 15 17 19 19 20 21 22 24 26 28 29 31 33 35 37 38 39 39 39 41 43 45 46 46 48 52 51 47 45 44 43 38 30 27 31 34 34 33 32 33 31 29 28 27 24 22 21 20 20 21 22 23
13 14 14 13 12 12 11 10 10 9 8 7 7 6 6 6 5 5 5 4 4 4 3 4 4 5 7 7 8 9 11 13 14 15 17 18 19 19 19 20 21 23 26 28 30 32 34 35 37 38 37 38 41 43 45 46 47 50 51 49 49 49 45 42 40 37 34 35 36 37 35 33 33 32 29 28 26 23 21 21 22 23 24 25 23
14 15 14 13 12 12 12 11 11 10 9 8 7 6 6 6 5 5 4 4 3 3 2 2 3 5 6 6 7 9 11 12 14 15 17 18 18 19 19 19 20 21 23 25 28 30 32 34 36 37 36 37 39 42 44 46 48 51 51 49 48 44 39 37 38 40 41 38 36 38 39 36 32 29 28 28 26 24 23 23 24 25 25 25 23
15 15 14 13 13 12 12 12 11 10 9 8 7 7 6 6 6 5 4 4 3 2 1 1 2 4 4 5 6 9 10 12 14 15 17 18 18 19 19 20 21 22 22 23 25 28 30 32 34 35 34 35 38 40 41 44 48 50 51 53 50 40 34 35 38 42 41 37 36 41 42 36 29 27 29 29 27 26 24 23 24 25 25 24 23
16 15 14 13 13 13 13 13 12 11 10 9 8 7 6 6 5 5 4 3 3 2 1 0 1 2 3 4 6 8 10 12 14 15 16 17 18 19 20 21 22 23 24 25 26 27 29 30 32 33 33 33 35 37 39 41 45 48 50 53 49 38 33 36 40 41 37 34 36 40 39 35 30 29 31 31 28 27 25 24 25 26 25 24 22
15 14 13 13 14 14 14 13 12 11 10 10 9 7 7 6 5 4 4 3 3 2 1 1 0 1 3 4 6 8 10 12 14 15 16 17 18 19 21 22 23 24 25 27 28 28 29 29 30 32 32 32 32 34 37 39 42 45 47 49 46 38 34 37 40 37 32 31 32 34 38 38 33 31 33 34 32 31 29 27 27 25 23 22 21
15 15 14 14 14 14 14 14 13 12 11 10 9 7 6 6 5 4 4 3 3 3 2 2 1 1 2 4 6 8 10 12 13 14 16 17 18 20 21 23 24 24 25 27 28 28 28 28 28 29 29 30 30 32 34 37 41 45 46 47 47 40 35 39 43 39 35 32 31 34 39 39 33 30 34 38 37 34 33 29 25 22 20 17 17
17 16 15 15 15 15 15 15 13 12 11 9 8 7 6 6 6 5 5 4 4 4 3 2 1 1 2 4 6 8 10 11 13 14 16 17 19 21 22 23 24 25 26 27 28 28 28 27 26 27 27 28 30 31 33 36 41 45 47 50 48 40 37 42 44 42 40 36 34 37 37 36 34 30 32 41 41 33 29 27 23 19 17 15 14
17 16 16 17 17 16 15 14 13 12 11 10 9 8 7 7 6 6 5 6 5 4 3 2 1 1 2 4 6 8 9 10 12 14 15 17 19 21 23 24 25 26 27 28 29 30 30 30 28 27 28 29 31 33 35 38 41 45 48 50 47 38 37 43 45 44 43 39 37 38 35 33 35 31 31 42 44 31 23 22 21 17 15 14 14
17 17 17 18 18 17 16 15 14 13 12 11 10 9 8 7 7 7 7 6 6 5 4 2 1 1 3 4 6 7 8 9 11 13 15 18 20 21 23 24 25 26 28 29 31 32 32 32 32 31 31 33 34 36 38 40 44 46 47 49 47 40 39 46 49 48 46 44 42 39 35 34 35 33 33 39 42 38 29 23 19 17 14 13 12
Wind_Direction
151 166 168 180 177 140 130 116 96 67 40 355 329 325 317 298 299 299 294 295 299 313 327 332 335 336 335 334 332 330 326 324 324 321 319 315 312 311 311 312 313 316 318 317 315 315 318 323 324 322 322 325 328 330 329 324 322 323 325 325 328 330 328 324 325 328 328 322 324 327 321 316 318 322 319 314 305 296 289 280 272 264 254 247 249
132 136 133 167 181 129 124 110 96 85 61 343 321 317 311 305 303 299 300 311 320 330 338 338 337 337 335 332 329 327 324 322 321 320 319 317 314 312 310 310 312 316 320 319 319 319 318 323 329 330 330 334 337 337 336 330 323 322 324 323 323 324 322 321 322 324 326 323 320 323 323 317 313 313 313 312 307 299 290 281 274 270 261 251 247
95 81 65 5 322 16 100 114 89 49 37 356 328 322 319 316 312 312 322 331 339 341 340 338 336 336 334 330 326 325 323 321 319 318 316 316 315 314 312 312 314 316 318 318 319 320 315 315 320 323 325 332 338 341 343 341 333 327 323 319 316 315 314 314 318 319 319 321 322 323 325 321 315 310 308 307 306 302 296 286 276 269 265 257 250
16 14 360 348 321 313 313 331 10 7 11 359 344 338 329 327 326 328 334 338 342 342 339 336 335 336 333 330 327 325 324 322 320 318 317 317 316 316 315 314 314 315 317 318 320 323 321 317 315 315 316 320 326 332 337 338 335 329 325 320 315 312 309 307 311 314 316 316 312 312 316 318 316 311 305 304 306 305 301 295 285 273 266 260 254
351 344 330 325 314 308 310 323 356 356 352 348 343 340 334 332 332 334 336 336 338 337 334 331 331 334 334 333 330 327 329 329 328 328 327 325 323 322 320 318 318 319 321 322 325 328 328 325 322 321 320 320 322 324 326 326 325 325 325 325 321 315 310 308 308 308 312 312 303 296 298 306 316 315 306 300 302 305 305 302 294 282 272 264 256
333 328 314 304 305 308 313 325 347 344 335 335 337 337 334 330 329 328 329 330 333 333 328 326 328 333 336 335 333 334 337 336 338 339 338 338 336 333 329 327 326 325 326 326 327 330 330 329 328 327 326 324 324 323 322 322 322 323 324 324 324 320 316 315 311 305 307 310 305 296 293 296 304 308 305 297 294 297 300 302 299 290 280 271 262
316 318 307 299 304 306 313 325 335 332 327 328 329 329 327 324 323 323 325 328 331 333 328 325 327 330 333 334 335 339 340 339 341 341 340 342 341 338 336 333 330 328 329 328 328 328 329 330 330 328 326 324 323 321 320 320 320 320 319 320 321 320 318 319 313 306 305 307 309 303 296 294 292 293 297 295 290 288 290 292 293 293 287 278 270
297 305 303 299 304 304 311 322 326 323 323 324 322 319 320 317 316 319 324 326 328 333 330 326 326 326 328 331 332 333 333 333 333 332 336 337 334 335 336 334 333 333 333 330 328 326 325 325 324 321 319 317 317 314 311 311 311 310 310 311 313 313 311 309 305 305 306 306 309 307 302 297 290 286 287 289 287 287 286 285 285 289 289 282 275
280 287 292 293 301 306 314 319 319 317 316 316 315 314 314 312 312 317 320 322 327 329 325 321 320 320 321 322 321 318 316 316 317 321 325 325 328 334 338 338 339 338 336 334 330 325 323 320 317 314 313 312 310 308 306 304 303 301 300 300 302 304 303 301 298 303 307 306 307 308 305 297 286 280 278 278 279 282 285 282 280 282 285 285 281
268 275 280 286 294 301 307 307 304 306 308 311 312 312 312 315 316 318 319 321 322 320 315 312 313 312 311 306 301 297 293 296 304 311 315 322 334 341 343 343 342 340 338 336 332 328 325 321 318 314 312 310 308 307 304 303 301 298 297 296 296 295 297 298 296 298 301 301 301 302 302 296 284 277 274 274 273 275 279 280 279 276 277 280 281
256 260 265 274 287 293 296 296 297 304 310 312 312 312 316 319 318 317 317 319 320 319 314 312 308 300 293 285 277 271 269 278 292 306 321 335 346 348 348 347 346 344 343 343 342 339 335 330 329 326 324 320 315 311 306 303 300 297 295 294 294 293 293 295 294 295 294 294 295 295 297 294 286 281 278 276 273 270 271 273 274 273 273 274 275
242 247 254 273 286 291 293 294 299 308 313 313 314 317 318 316 314 312 317 323 328 329 329 331 307 272 261 260 256 250 257 277 295 319 338 348 354 354 355 355 354 353 353 355 355 350 346 343 343 343 343 341 334 325 317 311 306 302 297 293 291 290 291 292 293 294 293 293 294 292 294 292 287 284 281 279 276 273 269 263 262 265 269 270 270
244 258 275 285 289 291 292 295 303 313 315 317 320 320 318 314 312 316 326 337 345 348 359 33 94 226 231 234 232 233 245 270 317 339 347 357 6 8 7 6 4 3 3 4 2 358 356 354 353 352 352 353 352 347 337 327 319 313 309 304 298 293 291 291 291 292 293 294 295 293 292 290 286 282 278 276 274 274 273 267 264 265 269 270 268
267 279 284 287 291 293 295 303 312 316 316 319 321 319 318 316 320 333 346 358 16 28 33 50 89 232 228 215 216 223 238 291 332 345 356 10 18 17 15 12 9 10 10 9 6 4 2 1 360 357 357 358 358 357 355 348 338 328 323 319 315 307 301 295 292 292 291 292 293 293 291 287 284 280 276 274 272 273 273 272 272 270 272 272 267
252 268 278 285 291 294 301 312 316 316 316 319 320 319 322 331 345 360 12 19 25 38 49 55 76 176 195 198 206 194 195 313 331 354 14 21 19 18 18 17 14 14 14 12 11 9 8 7 5 4 2 1 0 360 360 359 355 346 335 328 323 318 313 307 301 297 294 292 292 291 289 286 284 281 278 275 274 273 272 273 276 275 275 272 263
267 280 289 293 299 306 314 317 314 313 316 319 322 331 354 18 27 30 29 22 14 23 41 52 64 102 163 186 177 145 132 338 344 18 30 24 16 15 18 18 16 15 15 15 14 12 11 11 8 7 5 3 1 0 359 359 357 355 349 342 334 326 320 315 310 305 300 297 294 292 290 287 283 280 278 276 274 273 274 275 276 276 274 270 260
284 294 301 307 315 320 320 316 312 314 319 328 349 25 46 51 46 44 32 18 16 20 31 48 57 68 88 113 122 119 102 64 47 44 37 26 16 14 15 17 16 13 13 14 14 13 11 10 8 6 5 3 2 0 359 358 357 355 353 350 345 339 331 323 316 311 306 302 298 294 291 289 285 281 278 276 274 273 275 276 275 273 268 263 258
288 299 310 318 323 322 318 315 316 326 345 21 51 58 57 55 49 49 36 26 32 27 36 53 58 63 65 71 76 74 70 67 77 80 51 37 26 20 18 20 18 14 13 14 14 12 10 8 7 6 5 4 3 1 360 358 356 353 351 350 348 345 341 335 327 319 313 308 303 298 294 292 290 286 280 276 274 273 273 274 273 272 267 261 258
295 306 314 319 321 321 319 322 336 8 41 58 63 59 55 53 49 51 43 42 48 41 47 55 54 55 54 55 54 54 56 56 65 78 71 52 30 25 27 26 22 18 16 15 13 10 10 10 9 8 7 6 5 2 1 358 355 352 350 349 347 345 343 340 336 329 322 316 310 305 301 298 294 290 286 279 275 273 272 272 271 271 269 266 263
301 311 316 318 321 324 327 341 18 49 63 63 58 53 51 49 50 56 54 57 62 55 54 55 50 49 48 47 44 44 46 45 51 54 52 54 25 20 25 27 25 23 19 16 13 11 11 12 11 10 8 7 5 4 2 359 357 355 352 350 347 346 343 340 338 334 329 324 317 311 307 304 301 296 290 284 280 278 274 272 270 269 268 268 266
309 314 317 321 325 327 336 17 61 74 77 70 61 54 53 57 62 67 66 65 66 61 58 56 52 51 49 46 43 42 41 40 41 39 39 43 26 17 19 19 21 22 19 17 17 15 15 13 12 11 9 7 6 4 3 0 358 356 354 351 348 346 344 341 338 334 331 327 322 316 311 307 304 301 296 290 286 284 281 276 272 268 267 266 267
317 318 321 327 329 328 355 69 87 87 83 73 67 62 64 71 73 74 73 69 67 63 58 56 54 55 53 50 46 42 38 35 34 31 30 32 25 17 16 16 17 18 16 16 16 18 17 15 13 10 8 6 4 2 0 358 356 354 352 350 348 346 344 341 338 335 333 329 325 320 314 308 304 301 299 296 292 288 286 283 277 271 267 265 266
319 323 326 328 327 333 71 95 94 87 84 77 71 72 73 76 77 77 74 69 66 61 58 58 57 55 52 46 42 39 36 34 32 29 26 26 23 17 14 15 16 17 15 13 14 15 15 14 12 9 7 5 1 359 357 355 353 350 349 348 348 345 343 341 339 336 333 330 327 323 319 314 307 302 299 298 296 293 289 285 282 276 269 266 265
317 324 325 321 328 92 105 102 97 94 92 83 76 77 76 77 78 75 70 65 62 58 56 56 52 50 47 42 40 38 36 37 34 30 28 26 24 19 16 15 14 15 14 14 15 14 14 13 9 6 5 3 1 357 354 352 350 347 346 346 345 344 343 341 339 336 333 329 327 324 323 319 313 307 301 297 296 295 294 288 284 280 275 270 265
316 323 321 308 121 117 111 106 106 103 93 84 80 80 78 76 72 67 64 61 57 54 51 50 47 46 45 43 41 38 37 38 34 31 29 26 23 20 17 15 15 16 15 16 16 13 13 13 8 3 1 0 359 356 354 351 348 345 343 342 342 341 341 339 337 335 332 328 325 323 322 320 315 310 303 299 296 294 295 292 287 282 278 275 269
319 325 163 138 126 119 115 112 110 101 91 84 80 79 75 70 66 62 59 57 53 49 47 47 46 46 45 43 40 38 38 36 32 30 27 24 22 20 17 14 14 15 16 17 16 11 9 10 9 4 360 358 356 355 353 349 345 343 342 340 340 340 339 337 335 334 331 328 324 321 319 317 314 310 305 301 296 294 293 293 291 285 280 278 274
327 124 138 132 125 122 120 116 108 98 90 82 77 77 72 65 62 57 56 54 50 47 46 44 44 45 44 41 39 37 36 34 31 28 26 24 22 20 17 15 13 11 13 15 14 9 5 5 7 6 0 357 356 353 350 348 346 343 342 341 339 338 336 335 333 331 329 326 324 321 317 315 312 309 305 301 297 294 293 293 292 288 283 279 277
93 138 139 135 130 127 125 119 109 97 88 81 76 74 68 62 58 54 54 54 49 47 47 45 45 46 43 40 38 36 36 33 30 28 26 24 22 20 18 19 17 10 7 9 8 7 5 3 3 3 1 356 353 351 348 347 346 342 341 340 337 336 335 334 332 330 328 327 324 321 317 314 311 309 305 302 299 297 294 292 290 288 285 280 278
141 141 144 142 136 132 129 122 112 99 89 84 77 72 67 61 56 53 54 54 50 50 49 48 48 46 42 40 37 36 36 33 31 29 27 24 22 21 19 19 20 14 3 359 360 1 2 3 1 358 357 355 351 348 346 345 345 342 341 340 338 336 335 334 333 332 331 329 326 323 320 318 314 311 307 303 300 298 295 291 288 286 284 280 277
149 147 149 145 139 136 132 125 117 106 93 84 76 72 68 60 55 55 56 55 52 53 53 50 49 46 42 40 38 38 38 35 32 31 28 25 23 22 20 18 18 16 5 350 350 356 357 359 0 356 353 353 350 346 346 346 346 345 342 340 339 338 336 336 337 336 334 331 329 326 323 321 317 313 309 304 300 297 295 292 287 284 283 280 274
153 153 153 148 143 141 136 131 123 107 93 83 76 73 69 62 58 58 62 61 57 57 57 52 50 48 42 40 39 39 39 37 35 32 28 26 25 23 21 17 13 10 7 353 342 351 357 354 356 356 352 351 351 349 348 348 347 345 343 341 340 339 339 339 339 337 335 333 330 328 324 321 317 314 310 306 301 297 294 292 288 283 281 280 274
157 157 157 153 148 145 138 132 121 105 95 85 80 76 70 66 64 66 70 70 64 62 60 55 53 50 43 41 41 41 41 39 36 33 29 26 25 23 21 18 13 7 5 359 342 345 355 354 352 354 352 351 353 352 348 346 345 344 343 342 341 342 341 340 338 337 335 332 330 327 324 320 316 312 309 306 302 298 294 291 287 282 278 278 275
162 160 161 156 150 146 137 131 120 109 101 90 86 81 75 73 72 76 79 78 71 66 62 58 55 51 46 45 43 43 42 40 37 33 29 27 24 23 21 17 16 9 4 1 349 343 349 353 352 353 354 353 353 351 348 345 344 343 343 343 343 342 341 340 338 337 335 331 328 325 323 319 314 312 310 306 302 298 294 289 285 281 276 274 275
165 162 161 155 149 145 139 133 126 121 113 103 95 86 82 80 79 83 85 82 75 69 66 62 57 53 50 48 45 44 42 39 37 34 29 27 24 22 20 17 16 13 6 360 352 343 343 349 353 353 353 352 351 351 349 346 345 344 344 344 343 342 341 340 338 335 332 328 324 323 322 319 315 315 314 309 305 300 296 292 286 282 277 272 272
167 163 159 154 150 148 145 141 136 132 126 118 106 94 90 86 84 89 90 86 80 74 73 69 61 58 54 50 46 43 42 39 36 34 30 26 23 21 19 16 13 10 6 359 353 346 342 347 353 352 351 351 351 351 349 347 346 345 344 343 342 341 339 339 336 330 325 322 320 320 320 318 314 314 314 311 307 305 302 297 291 285 280 273 270
171 166 162 158 155 153 150 147 143 139 136 130 117 105 101 96 94 95 93 90 87 84 81 74 66 59 52 49 46 44 42 39 35 33 30 26 23 20 17 14 10 5 2 359 354 350 346 347 351 352 351 351 351 351 350 348 346 344 343 342 341 338 336 335 332 323 317 317 316 315 315 313 311 310 310 308 306 306 304 300 296 290 282 275 269
172 171 170 164 159 158 155 151 148 146 147 140 127 118 112 109 106 101 97 96 95 93 84 73 64 56 49 46 45 44 41 38 34 30 28 26 22 19 15 10 6 2 360 358 355 352 350 349 350 351 351 351 351 352 352 349 346 344 343 340 337 335 332 328 323 318 317 317 313 312 312 310 309 307 305 304 301 301 301 299 297 292 284 275 268
175 174 173 168 163 161 158 156 155 155 156 151 139 132 124 118 113 106 101 102 100 92 80 70 61 51 47 44 42 41 38 34 31 26 24 24 21 17 13 8 4 0 359 357 355 353 352 351 351 350 350 351 351 352 352 349 345 343 340 336 334 333 328 324 320 318 318 317 313 313 312 311 309 306 302 301 299 298 298 298 296 292 285 276 266
176 175 173 170 169 167 163 162 161 161 163 160 150 143 134 124 118 112 109 106 100 90 77 68 60 50 45 43 39 38 34 30 27 22 20 21 20 16 10 6 3 359 358 356 355 354 353 352 351 350 349 351 351 350 350 348 344 340 338 335 333 330 326 324 321 319 318 317 315 315 313 311 310 307 303 301 299 298 297 297 296 292 285 276 266
175 175 174 174 175 174 169 165 165 168 169 168 160 150 140 129 124 122 116 108 99 90 78 66 58 49 43 41 37 34 31 27 22 18 17 17 16 14 10 6 2 359 357 356 355 354 353 351 351 350 349 350 350 348 347 348 344 341 341 338 332 328 327 324 320 319 320 319 318 317 315 312 310 309 305 302 299 297 294 293 290 287 283 276 268
177 175 176 177 179 178 173 168 169 173 175 173 166 154 145 137 134 132 123 111 102 90 78 64 56 48 40 37 35 30 29 25 19 16 16 15 12 10 8 5 1 358 355 355 355 354 352 352 350 350 349 349 348 347 347 347 344 341 342 340 332 327 325 322 321 322 322 322 322 319 316 315 314 311 307 304 301 297 294 290 285 283 281 277 272
179 179 179 178 178 176 174 172 172 177 180 177 170 160 154 149 143 140 131 119 110 97 80 62 50 44 38 33 30 27 24 21 16 15 16 15 12 10 9 6 1 357 353 353 355 354 352 352 350 350 349 347 347 347 347 346 344 342 343 342 337 332 327 324 325 329 330 328 325 320 317 317 318 314 309 306 303 298 295 289 283 278 274 275 275
182 183 182 180 179 175 172 173 176 181 183 179 175 170 164 158 152 147 142 133 121 107 89 65 46 39 35 29 25 22 19 15 12 13 14 13 11 10 10 8 3 357 353 352 353 354 353 351 350 350 349 345 345 348 347 345 344 345 345 342 338 334 331 328 328 329 334 333 326 321 319 320 321 316 310 308 305 300 296 289 282 277 274 274 275
185 184 182 181 179 174 171 174 179 183 186 182 179 178 172 166 163 156 151 146 134 116 98 66 41 35 31 25 23 19 15 10 9 12 12 9 9 9 7 7 6 1 356 354 353 353 353 351 350 350 348 344 344 347 348 346 345 346 345 343 339 333 329 329 327 326 331 333 327 323 322 322 322 316 308 307 307 301 296 288 282 282 282 280 276
187 184 182 179 176 175 173 176 181 184 186 185 183 184 179 172 169 164 161 157 150 143 125 54 30 31 26 21 24 19 9 7 9 11 9 6 7 7 5 5 6 3 359 357 355 355 354 352 350 349 348 346 344 345 348 347 347 348 345 344 342 335 327 327 327 326 329 332 329 325 322 322 321 314 308 307 307 303 298 292 287 288 290 287 279
187 182 182 178 175 175 174 176 182 184 185 187 188 187 182 177 174 168 165 161 159 173 181 60 12 19 19 18 24 17 6 7 10 8 6 5 5 5 4 5 5 3 360 359 358 357 356 354 351 348 348 347 344 344 346 348 350 349 346 346 345 335 324 326 329 328 329 332 331 326 322 324 323 315 310 310 309 305 300 296 296 297 296 290 281
187 181 180 178 176 176 176 177 179 182 184 186 188 187 183 181 179 173 172 172 170 186 196 186 337 2 13 17 20 14 7 7 8 5 5 5 4 3 3 5 4 3 1 360 359 358 356 354 352 349 348 348 346 346 346 349 352 351 349 349 346 333 323 329 334 333 332 334 335 331 327 327 324 315 313 316 315 310 303 299 300 301 297 290 280
184 179 179 179 178 178 178 177 177 180 184 185 185 187 185 184 185 185 187 189 190 197 198 188 208 355 15 18 18 14 9 6 3 3 4 4 3 2 2 4 4 4 3 1 359 358 356 354 353 351 349 348 348 348 349 352 355 354 353 353 349 338 331 335 339 338 338 340 343 340 332 326 323 316 316 322 322 315 307 302 298 298 297 291 284
182 178 179 179 178 179 179 177 176 179 182 184 185 186 187 189 193 196 196 198 201 202 191 182 185 14 16 19 20 15 10 6 3 3 4 3 3 3 2 2 2 2 2 1 359 358 356 355 355 354 352 352 352 354 355 357 359 359 358 356 352 345 339 340 340 339 342 345 346 343 333 325 324 322 320 327 327 317 308 305 300 296 294 291 288
182 180 181 179 177 178 179 178 179 182 183 186 188 188 190 195 198 199 199 199 198 192 177 170 159 44 16 17 21 17 12 9 6 4 3 3 4 3 1 1 1 0 359 357 357 356 355 355 356 357 358 357 358 360 1 2 3 4 2 359 355 349 342 342 342 340 343 347 349 345 335 327 330 331 330 331 329 322 314 310 303 297 293 290 289
184 183 182 181 180 178 178 180 183 185 185 188 192 192 192 195 196 194 193 190 185 173 161 155 130 52 24 20 23 18 13 12 9 5 3 3 4 3 1 360 359 358 356 354 354 353 352 353 356 359 2 2 2 3 4 5 6 6 5 3 1 355 347 346 347 345 343 346 351 350 339 332 336 340 341 338 330 325 326 321 307 299 296 292 289